{"data":{"norad_id":64303,"intl_designator":"2025-123N","name":"STARLINK-34356","alt_names":[],"object_type":"PAYLOAD","status":"ACTIVE","operator":null,"country":"US","launch_date":"2025-06-08","launch_site_code":"AFWTR","launch_vehicle":null,"mission":null,"orbit_class":"UNKNOWN","rcs_meters":null,"size_class":null,"mass_kg":null,"dimensions":null,"purposes":["comms"],"wikipedia_slug":null,"has_3d_model":false,"image_url":null,"decayed_at":null,"tle_current":{"epoch":"2026-05-25T00:03:57.343392Z","epoch_age_seconds":71866,"freshness":"FRESH","line1":"1 64303U 25123N   26145.00274703  .00002383  00000+0  20742-3 0  9993","line2":"2 64303  70.0019   1.8788 0002424 269.0070  91.0812 14.98333161 53056","mean_motion":14.98333161,"eccentricity":0.0002424,"inclination_deg":70.0019,"raan_deg":1.8788,"arg_perigee_deg":269.007,"mean_anomaly_deg":91.0812,"bstar":0.00020742,"rev_number":5305,"period_min":96.106796370904,"perigee_km":570.36139144258,"apogee_km":573.73084021713,"semimajor_km":6950.1831158299,"source":"CELESTRAK","updated_at":"2026-05-25T13:38:20.368085Z"}}}